QPF
0.00 0.00 0.00 0.00 0.00 0.00 0.00 0.00 0.00 0.00 0.00 0.00 0.00 0.00 0.00 0.00 0.00 0.00 0.00 0.00 0.00 0.00 0.00 0.00 0.00 0.00 0.00 0.00 0.00 0.00 0.00 0.00 0.00 0.00 0.00 0.00 0.00 0.00 0.00 0.00 0.00 0.00 0.00
0.00 0.00 0.00 0.00 0.00 0.00 0.00 0.00 0.00 0.00 0.00 0.00 0.00 0.00 0.00 0.00 0.00 0.00 0.00 0.00 0.00 0.00 0.00 0.00 0.00 0.00 0.00 0.00 0.00 0.00 0.00 0.00 0.00 0.00 0.00 0.00 0.00 0.00 0.00 0.00 0.00 0.00 0.00
0.00 0.00 0.00 0.00 0.00 0.00 0.00 0.00 0.00 0.00 0.00 0.00 0.00 0.00 0.00 0.00 0.00 0.00 0.00 0.00 0.00 0.00 0.00 0.00 0.00 0.00 0.00 0.00 0.00 0.00 0.00 0.00 0.00 0.00 0.00 0.00 0.00 0.00 0.00 0.00 0.00 0.00 0.00
0.00 0.00 0.00 0.00 0.00 0.00 0.00 0.00 0.00 0.00 0.00 0.00 0.00 0.00 0.00 0.00 0.00 0.00 0.00 0.00 0.00 0.00 0.00 0.00 0.00 0.00 0.00 0.00 0.00 0.00 0.00 0.00 0.00 0.00 0.00 0.00 0.00 0.00 0.00 0.00 0.00 0.00 0.00
0.00 0.00 0.00 0.00 0.00 0.00 0.00 0.00 0.00 0.00 0.00 0.00 0.00 0.00 0.00 0.00 0.00 0.00 0.00 0.00 0.00 0.00 0.00 0.00 0.00 0.00 0.00 0.00 0.00 0.00 0.00 0.00 0.00 0.00 0.00 0.00 0.00 0.00 0.00 0.00 0.00 0.00 0.00
0.00 0.00 0.00 0.00 0.00 0.00 0.00 0.00 0.00 0.00 0.00 0.00 0.00 0.00 0.00 0.00 0.00 0.00 0.00 0.00 0.00 0.00 0.00 0.01 0.00 0.00 0.00 0.00 0.00 0.00 0.00 0.00 0.00 0.00 0.00 0.00 0.00 0.00 0.00 0.00 0.00 0.00 0.00
0.00 0.00 0.00 0.00 0.00 0.00 0.00 0.00 0.00 0.00 0.00 0.00 0.00 0.00 0.00 0.00 0.00 0.00 0.00 0.00 0.00 0.00 0.00 0.01 0.01 0.00 0.00 0.00 0.00 0.00 0.00 0.00 0.00 0.00 0.00 0.00 0.00 0.00 0.00 0.00 0.00 0.00 0.00
0.00 0.00 0.00 0.00 0.00 0.00 0.00 0.00 0.00 0.00 0.00 0.00 0.00 0.00 0.00 0.00 0.00 0.00 0.00 0.00 0.00 0.00 0.00 0.00 0.01 0.01 0.00 0.00 0.00 0.00 0.00 0.00 0.00 0.00 0.00 0.00 0.00 0.00 0.00 0.00 0.00 0.00 0.00
0.00 0.00 0.00 0.00 0.00 0.00 0.00 0.00 0.00 0.00 0.00 0.00 0.00 0.00 0.00 0.00 0.00 0.00 0.00 0.00 0.00 0.00 0.00 0.00 0.02 0.01 0.00 0.00 0.00 0.00 0.00 0.00 0.00 0.00 0.00 0.00 0.00 0.00 0.00 0.00 0.00 0.00 0.00
0.00 0.00 0.00 0.00 0.00 0.00 0.00 0.00 0.00 0.00 0.00 0.00 0.00 0.00 0.00 0.00 0.00 0.00 0.00 0.00 0.00 0.00 0.00 0.00 0.01 0.01 0.01 0.01 0.00 0.00 0.00 0.00 0.00 0.00 0.00 0.00 0.00 0.00 0.00 0.00 0.00 0.00 0.00
0.00 0.00 0.00 0.00 0.00 0.00 0.00 0.00 0.00 0.00 0.00 0.00 0.00 0.00 0.00 0.00 0.00 0.00 0.00 0.00 0.00 0.00 0.00 0.00 0.00 0.01 0.02 0.00 0.00 0.00 0.00 0.00 0.00 0.00 0.00 0.00 0.00 0.00 0.00 0.00 0.00 0.00 0.00
0.00 0.00 0.00 0.00 0.00 0.00 0.00 0.00 0.00 0.00 0.00 0.00 0.00 0.00 0.00 0.00 0.00 0.00 0.00 0.00 0.00 0.00 0.00 0.00 0.00 0.02 0.03 0.00 0.00 0.00 0.00 0.00 0.00 0.00 0.00 0.00 0.00 0.00 0.00 0.00 0.00 0.00 0.00
0.00 0.00 0.00 0.00 0.00 0.00 0.00 0.00 0.00 0.00 0.00 0.00 0.00 0.00 0.00 0.00 0.00 0.00 0.00 0.00 0.00 0.00 0.00 0.00 0.00 0.01 0.02 0.00 0.00 0.00 0.00 0.00 0.00 0.00 0.00 0.00 0.00 0.00 0.00 0.00 0.00 0.00 0.00
0.00 0.00 0.00 0.00 0.00 0.00 0.00 0.00 0.00 0.00 0.00 0.00 0.00 0.00 0.00 0.00 0.00 0.00 0.00 0.00 0.00 0.00 0.00 0.00 0.00 0.01 0.01 0.00 0.00 0.00 0.00 0.00 0.00 0.00 0.00 0.00 0.00 0.00 0.00 0.00 0.00 0.00 0.00
0.00 0.00 0.00 0.00 0.00 0.00 0.00 0.00 0.00 0.00 0.00 0.00 0.00 0.00 0.00 0.00 0.00 0.00 0.00 0.00 0.00 0.00 0.00 0.00 0.00 0.02 0.02 0.00 0.00 0.00 0.00 0.00 0.00 0.00 0.00 0.00 0.00 0.00 0.00 0.00 0.00 0.00 0.00
0.00 0.00 0.00 0.00 0.00 0.00 0.00 0.00 0.00 0.00 0.00 0.00 0.00 0.00 0.00 0.00 0.00 0.00 0.00 0.00 0.00 0.00 0.00 0.00 0.00 0.02 0.01 0.01 0.00 0.00 0.00 0.00 0.00 0.00 0.00 0.00 0.00 0.00 0.00 0.00 0.00 0.00 0.00
0.00 0.00 0.00 0.00 0.00 0.00 0.00 0.00 0.00 0.00 0.00 0.00 0.00 0.00 0.00 0.00 0.00 0.00 0.00 0.00 0.00 0.00 0.00 0.00 0.00 0.01 0.01 0.01 0.00 0.00 0.00 0.00 0.00 0.00 0.00 0.00 0.00 0.00 0.00 0.00 0.00 0.00 0.00
0.00 0.00 0.00 0.00 0.00 0.00 0.00 0.00 0.00 0.00 0.00 0.00 0.00 0.00 0.00 0.00 0.00 0.00 0.00 0.00 0.00 0.00 0.00 0.00 0.00 0.01 0.02 0.01 0.00 0.00 0.00 0.00 0.00 0.00 0.00 0.00 0.00 0.00 0.00 0.00 0.00 0.00 0.00
0.00 0.00 0.00 0.00 0.00 0.00 0.00 0.00 0.00 0.00 0.00 0.00 0.00 0.00 0.00 0.00 0.00 0.00 0.01 0.00 0.00 0.00 0.00 0.00 0.02 0.02 0.01 0.00 0.00 0.00 0.00 0.00 0.00 0.00 0.00 0.00 0.00 0.00 0.00 0.00 0.00 0.00 0.00
0.00 0.00 0.00 0.00 0.00 0.00 0.00 0.00 0.00 0.00 0.00 0.00 0.00 0.00 0.00 0.00 0.00 0.01 0.00 0.00 0.00 0.00 0.00 0.01 0.00 0.01 0.01 0.00 0.00 0.00 0.00 0.00 0.00 0.00 0.00 0.00 0.00 0.00 0.00 0.00 0.00 0.00 0.00
0.00 0.00 0.00 0.00 0.00 0.00 0.00 0.00 0.00 0.00 0.00 0.00 0.00 0.00 0.00 0.00 0.00 0.01 0.01 0.00 0.00 0.00 0.00 0.00 0.02 0.02 0.00 0.00 0.00 0.00 0.00 0.00 0.00 0.00 0.00 0.00 0.00 0.00 0.00 0.00 0.00 0.00 0.00
0.00 0.00 0.00 0.00 0.00 0.00 0.00 0.00 0.00 0.00 0.00 0.00 0.00 0.00 0.00 0.00 0.00 0.00 0.00 0.00 0.00 0.00 0.00 0.00 0.01 0.01 0.00 0.00 0.00 0.00 0.00 0.00 0.00 0.00 0.00 0.00 0.00 0.00 0.00 0.00 0.00 0.00 0.00
0.00 0.00 0.00 0.00 0.00 0.00 0.00 0.00 0.00 0.00 0.00 0.00 0.00 0.00 0.00 0.00 0.00 0.00 0.00 0.00 0.01 0.01 0.00 0.00 0.01 0.01 0.00 0.00 0.00 0.00 0.00 0.00 0.00 0.00 0.00 0.00 0.00 0.00 0.00 0.00 0.00 0.00 0.00
0.00 0.00 0.00 0.00 0.00 0.00 0.00 0.00 0.00 0.00 0.00 0.00 0.00 0.00 0.00 0.00 0.00 0.00 0.00 0.00 0.00 0.00 0.00 0.01 0.01 0.00 0.00 0.00 0.00 0.00 0.00 0.00 0.00 0.00 0.00 0.00 0.00 0.00 0.00 0.00 0.00 0.00 0.00
0.00 0.00 0.00 0.00 0.00 0.00 0.00 0.00 0.00 0.00 0.00 0.00 0.00 0.00 0.00 0.00 0.00 0.00 0.00 0.00 0.00 0.00 0.00 0.01 0.00 0.00 0.00 0.00 0.00 0.00 0.00 0.00 0.00 0.00 0.00 0.00 0.00 0.00 0.00 0.00 0.00 0.00 0.00
0.00 0.00 0.00 0.00 0.00 0.00 0.00 0.00 0.00 0.00 0.00 0.01 0.00 0.00 0.00 0.00 0.00 0.00 0.00 0.00 0.00 0.00 0.00 0.00 0.00 0.00 0.00 0.00 0.00 0.00 0.00 0.00 0.00 0.00 0.00 0.00 0.00 0.00 0.00 0.00 0.00 0.00 0.00
MSLP
1011.97 1012.57 1013.22 1013.73 1014.07 1014.36 1014.69 1014.82 1015.17 1015.56 1015.86 1016.04 1016.19 1016.47 1016.68 1016.93 1017.19 1017.61 1017.98 1018.21 1018.59 1018.97 1019.32 1019.57 1019.65 1019.80 1020.13 1020.30 1020.28 1020.32 1020.67 1021.06 1021.35 1020.85 1020.50 1019.77 1019.50 1019.19 1018.83 1018.58 1018.17 1017.73 1017.37
1011.12 1011.88 1012.50 1013.15 1013.60 1013.92 1014.13 1014.30 1014.65 1015.01 1015.31 1015.58 1015.86 1016.11 1016.39 1016.67 1016.99 1017.19 1017.56 1017.80 1018.27 1018.81 1019.18 1019.58 1019.78 1019.92 1020.28 1020.42 1020.44 1020.56 1020.75 1020.82 1021.18 1021.49 1020.95 1020.28 1019.77 1019.42 1019.20 1018.85 1018.15 1017.69 1017.55
1010.46 1011.19 1011.88 1012.56 1012.99 1013.14 1013.32 1013.68 1014.10 1014.49 1014.81 1015.14 1015.48 1015.67 1015.96 1016.24 1016.56 1016.71 1016.94 1017.41 1017.85 1018.24 1018.78 1019.20 1019.44 1019.69 1020.05 1020.28 1020.40 1020.59 1020.59 1020.69 1021.06 1021.25 1021.12 1020.70 1020.12 1019.68 1019.24 1018.82 1018.29 1017.80 1017.15
1009.73 1010.45 1011.08 1011.68 1012.03 1012.30 1012.68 1013.07 1013.48 1013.92 1014.34 1014.58 1014.81 1015.02 1015.34 1015.69 1015.98 1016.30 1016.67 1016.99 1017.25 1017.57 1018.01 1018.43 1018.65 1018.96 1019.06 1019.27 1019.65 1019.99 1020.32 1020.55 1020.77 1020.80 1020.98 1020.94 1020.62 1019.84 1019.60 1019.46 1018.74 1018.02 1017.35
1008.98 1009.67 1010.14 1010.72 1011.21 1011.69 1012.12 1012.38 1012.80 1013.21 1013.63 1013.92 1014.18 1014.38 1014.66 1015.01 1015.40 1015.81 1016.06 1016.50 1016.83 1017.25 1017.71 1018.08 1018.60 1018.90 1018.97 1018.99 1019.30 1019.69 1019.90 1020.32 1020.21 1020.56 1020.77 1020.76 1020.46 1020.04 1019.90 1019.59 1019.21 1018.29 1017.11
1007.99 1008.65 1009.32 1010.10 1010.59 1010.99 1011.38 1011.77 1012.22 1012.52 1012.87 1013.24 1013.54 1013.66 1013.98 1014.18 1014.55 1014.88 1015.44 1016.03 1016.41 1016.99 1017.39 1017.94 1018.20 1018.56 1018.72 1018.72 1018.90 1018.99 1019.24 1019.62 1019.67 1020.02 1020.26 1020.25 1020.08 1019.84 1019.78 1019.61 1019.05 1018.92 1018.59
1006.88 1007.66 1008.48 1009.24 1009.79 1010.17 1010.62 1011.17 1011.41 1011.80 1012.25 1012.46 1012.71 1012.91 1013.09 1013.35 1013.74 1014.34 1014.92 1015.40 1015.88 1016.23 1016.85 1017.35 1018.15 1018.23 1018.34 1018.58 1018.62 1018.76 1018.97 1019.02 1019.12 1019.27 1019.50 1019.60 1019.51 1019.24 1019.17 1019.12 1019.17 1019.04 1018.66
1005.97 1006.79 1007.61 1008.34 1008.90 1009.40 1009.91 1010.24 1010.55 1011.08 1011.36 1011.68 1011.86 1012.09 1012.36 1012.55 1013.15 1013.78 1014.20 1014.58 1015.19 1015.66 1016.21 1016.83 1017.20 1017.57 1017.89 1018.19 1018.75 1018.93 1018.68 1018.69 1018.64 1018.58 1018.39 1018.19 1018.30 1018.27 1018.62 1018.71 1018.80 1018.52 1017.97
1005.18 1005.80 1006.54 1007.29 1007.99 1008.58 1008.99 1009.32 1009.63 1010.26 1010.52 1010.62 1010.84 1011.29 1011.58 1011.91 1012.54 1012.83 1013.49 1014.20 1014.92 1015.36 1015.92 1016.01 1016.46 1017.09 1017.72 1018.46 1018.64 1018.93 1018.77 1018.38 1017.68 1017.66 1017.69 1017.70 1017.52 1017.30 1017.42 1018.16 1018.26 1018.51 1018.00
1004.28 1004.81 1005.56 1006.26 1006.90 1007.48 1007.85 1008.30 1008.66 1009.18 1009.53 1009.86 1010.09 1010.24 1010.56 1011.03 1011.63 1011.96 1012.77 1013.60 1014.33 1014.93 1015.12 1015.47 1016.01 1016.38 1017.33 1017.71 1018.42 1018.96 1018.92 1018.19 1017.97 1017.80 1017.70 1017.55 1017.41 1017.34 1016.86 1017.17 1017.53 1017.91 1017.89
1002.99 1003.80 1004.53 1005.13 1005.67 1006.20 1006.77 1007.33 1007.91 1008.40 1008.85 1009.12 1009.28 1009.45 1009.78 1010.11 1010.71 1011.24 1012.00 1012.52 1013.04 1013.90 1014.60 1015.24 1015.86 1016.36 1016.40 1016.68 1017.11 1017.88 1018.00 1018.02 1018.08 1018.08 1017.75 1017.51 1017.26 1017.08 1016.90 1016.81 1016.90 1017.25 1017.12
1002.40 1003.01 1003.66 1004.27 1004.81 1005.39 1006.00 1006.49 1007.04 1007.61 1008.03 1008.29 1008.61 1008.72 1008.94 1009.45 1009.96 1010.66 1011.30 1011.49 1012.07 1012.85 1013.62 1014.18 1014.59 1015.34 1015.76 1016.39 1016.73 1017.14 1017.34 1017.77 1017.99 1018.12 1018.02 1017.72 1017.51 1017.16 1016.85 1016.49 1016.34 1016.30 1016.51
1001.71 1002.10 1002.65 1003.38 1004.05 1004.65 1005.24 1005.76 1006.42 1006.83 1007.07 1007.32 1007.57 1007.74 1008.11 1008.96 1009.80 1010.32 1010.89 1011.27 1011.54 1012.06 1012.52 1012.82 1013.52 1013.98 1014.58 1015.09 1015.68 1015.86 1016.65 1017.34 1017.82 1017.95 1017.96 1017.76 1017.36 1016.99 1016.56 1016.35 1015.95 1015.89 1015.83
1001.20 1001.74 1002.35 1002.86 1003.37 1003.94 1004.37 1004.82 1005.28 1005.58 1005.90 1006.21 1006.54 1006.85 1007.44 1008.39 1009.13 1010.06 1010.55 1011.14 1011.41 1011.78 1012.10 1012.49 1013.10 1013.93 1014.22 1015.04 1014.98 1015.24 1015.96 1016.69 1017.43 1017.51 1017.39 1017.26 1017.06 1016.91 1016.99 1016.94 1016.76 1016.53 1016.51
1000.41 1001.06 1001.47 1001.95 1002.59 1003.08 1003.42 1003.62 1003.94 1003.84 1004.20 1004.67 1004.96 1005.52 1006.11 1007.21 1007.57 1007.72 1008.74 1009.50 1009.90 1010.64 1012.23 1012.95 1013.46 1013.82 1014.93 1015.64 1016.02 1015.80 1015.74 1016.34 1016.76 1017.00 1016.95 1016.95 1017.01 1017.00 1016.86 1016.73 1016.98 1017.21 1017.06
999.93 1000.30 1000.51 1001.01 1001.65 1002.22 1002.51 1002.97 1003.33 1003.38 1003.41 1003.58 1003.91 1004.25 1004.60 1005.08 1006.11 1006.84 1007.10 1007.94 1008.41 1009.00 1010.17 1011.99 1013.44 1014.37 1014.12 1014.75 1015.09 1015.24 1015.76 1015.77 1016.12 1016.53 1016.60 1016.88 1016.85 1016.69 1016.87 1016.98 1017.04 1016.96 1016.96
999.06 999.47 999.96 1000.41 1000.68 1001.07 1001.61 1002.06 1002.60 1003.42 1003.43 1003.49 1003.77 1003.71 1003.85 1004.71 1005.39 1005.81 1007.38 1007.54 1008.45 1009.32 1009.16 1009.12 1010.49 1012.41 1013.36 1014.19 1015.07 1015.27 1015.50 1015.75 1015.79 1016.00 1016.27 1016.46 1016.45 1016.71 1016.86 1016.89 1016.89 1016.76 1016.60
998.83 998.90 999.27 999.53 999.88 1000.20 1000.58 1000.96 1001.41 1002.19 1002.86 1003.35 1003.56 1003.77 1003.67 1003.91 1004.52 1005.54 1007.05 1008.30 1009.51 1009.79 1009.87 1010.42 1010.34 1011.00 1011.83 1011.22 1012.06 1014.11 1014.61 1015.63 1016.04 1016.08 1016.25 1016.03 1016.26 1016.61 1016.66 1016.73 1016.66 1016.69 1016.76
999.20 998.87 999.00 999.14 999.30 999.46 999.79 1000.10 1000.43 1000.94 1001.64 1002.36 1003.37 1003.82 1004.40 1004.92 1005.50 1006.25 1006.52 1007.02 1007.89 1008.49 1008.67 1009.30 1009.90 1010.70 1011.15 1011.54 1012.36 1013.08 1013.40 1014.22 1015.07 1015.62 1015.80 1015.77 1015.88 1016.28 1016.46 1016.44 1016.45 1016.32 1016.45
999.35 998.91 998.75 998.88 998.96 999.23 999.47 999.75 1000.03 1000.39 1001.06 1001.76 1002.43 1002.85 1004.03 1004.85 1005.79 1006.26 1006.37 1006.41 1006.99 1007.41 1007.83 1008.48 1009.11 1010.05 1010.67 1010.95 1011.30 1012.22 1013.26 1013.87 1014.42 1014.96 1015.23 1015.49 1015.70 1015.97 1016.15 1016.22 1016.22 1016.51 1016.60
1000.21 999.02 998.66 998.66 998.88 998.78 998.91 999.31 999.49 1000.00 1000.44 1001.00 1001.31 1001.77 1002.07 1002.91 1003.66 1004.45 1005.16 1005.50 1005.81 1006.34 1006.94 1007.39 1008.03 1009.08 1010.27 1011.19 1011.18 1011.15 1012.36 1013.28 1013.74 1014.34 1014.57 1014.82 1015.36 1015.76 1015.73 1015.90 1016.21 1016.36 1016.48
1000.21 999.48 998.86 998.57 998.47 998.52 998.52 998.67 999.07 999.35 999.80 1000.29 1000.73 1001.40 1002.08 1002.70 1003.04 1003.60 1004.27 1004.67 1004.96 1005.44 1005.99 1006.51 1006.96 1008.07 1008.92 1009.36 1011.07 1011.25 1011.09 1012.42 1012.76 1013.41 1013.74 1014.17 1014.78 1015.13 1015.56 1016.01 1016.22 1016.46 1016.58
1000.69 1000.39 999.79 999.10 998.56 998.36 998.13 998.27 998.64 998.83 999.28 999.74 1000.36 1001.28 1001.90 1002.04 1002.31 1002.85 1003.41 1003.87 1004.48 1005.02 1005.54 1005.85 1006.46 1007.31 1008.09 1009.11 1009.65 1010.61 1011.12 1011.98 1012.21 1012.68 1013.24 1013.60 1014.32 1015.01 1015.26 1015.54 1015.93 1016.20 1016.32
1002.13 1001.58 1000.82 1000.00 999.09 998.43 998.05 997.70 997.94 998.16 998.62 999.25 999.90 1000.47 1001.03 1001.40 1001.73 1002.18 1002.64 1003.18 1004.03 1004.62 1005.11 1005.72 1005.86 1006.60 1007.77 1008.47 1009.19 1010.07 1010.78 1011.10 1011.74 1012.32 1012.59 1013.08 1014.02 1014.64 1015.01 1015.34 1015.51 1015.91 1016.17
1002.93 1002.29 1001.74 1001.14 999.97 998.97 998.07 997.75 997.68 997.83 998.14 998.61 999.24 999.90 1000.48 1000.98 1001.36 1001.75 1002.24 1002.81 1003.43 1004.31 1004.92 1005.42 1005.91 1006.25 1007.06 1007.77 1008.75 1009.67 1010.70 1011.16 1011.40 1011.92 1012.31 1012.62 1013.69 1014.37 1014.62 1015.03 1015.41 1015.76 1016.09
1004.32 1003.66 1003.20 1002.54 1001.35 1000.15 999.03 998.13 997.82 997.90 998.09 998.45 998.97 999.65 1000.12 1000.51 1000.92 1001.47 1002.04 1002.40 1002.87 1003.39 1004.14 1004.86 1005.35 1005.44 1006.25 1006.71 1007.01 1007.61 1009.30 1010.68 1011.29 1011.73 1012.37 1012.74 1013.61 1014.42 1014.75 1015.06 1015.38 1015.83 1016.05
Thickness
5814 5812 5811 5809 5808 5808 5806 5807 5805 5803 5801 5799 5798 5795 5792 5789 5786 5780 5773 5769 5763 5757 5751 5746 5741 5736 5728 5722 5717 5712 5704 5695 5687 5684 5679 5678 5672 5666 5660 5654 5650 5646 5642
5820 5815 5814 5812 5811 5810 5810 5810 5809 5807 5806 5803 5801 5798 5794 5791 5787 5783 5777 5772 5764 5757 5751 5744 5738 5733 5725 5719 5714 5708 5701 5694 5685 5675 5672 5671 5667 5661 5653 5648 5646 5641 5634
5823 5819 5816 5814 5814 5814 5815 5814 5812 5810 5808 5806 5802 5800 5797 5793 5789 5786 5782 5774 5768 5761 5753 5746 5740 5733 5726 5718 5712 5706 5700 5693 5683 5674 5669 5663 5660 5655 5649 5645 5642 5636 5633
5826 5823 5820 5819 5819 5819 5818 5817 5815 5813 5810 5808 5807 5804 5801 5797 5793 5789 5784 5778 5773 5767 5760 5752 5746 5739 5733 5726 5718 5709 5700 5692 5683 5675 5666 5658 5652 5650 5644 5637 5632 5630 5625
5828 5826 5825 5824 5823 5821 5819 5820 5818 5816 5813 5811 5809 5808 5805 5802 5798 5792 5788 5782 5776 5769 5761 5753 5744 5738 5732 5726 5718 5709 5701 5691 5684 5674 5665 5656 5650 5645 5639 5631 5622 5622 5621
5832 5830 5829 5825 5824 5823 5821 5821 5819 5818 5817 5814 5812 5811 5808 5808 5804 5800 5793 5785 5778 5769 5762 5752 5745 5739 5732 5726 5720 5713 5703 5692 5686 5675 5665 5658 5651 5642 5634 5627 5621 5612 5602
5837 5834 5831 5829 5827 5826 5824 5821 5822 5820 5818 5816 5815 5815 5813 5812 5808 5801 5795 5788 5780 5774 5764 5755 5743 5739 5731 5722 5717 5711 5703 5696 5688 5678 5668 5657 5650 5643 5635 5624 5611 5602 5593
5839 5837 5835 5832 5830 5828 5826 5825 5825 5823 5822 5819 5819 5818 5817 5816 5810 5803 5798 5793 5783 5775 5767 5756 5748 5741 5731 5721 5710 5701 5697 5691 5685 5680 5673 5666 5655 5646 5633 5621 5609 5599 5591
5839 5840 5840 5838 5833 5830 5828 5829 5829 5826 5825 5825 5825 5821 5819 5818 5811 5807 5801 5793 5781 5774 5765 5761 5752 5741 5730 5715 5706 5698 5692 5689 5688 5679 5671 5662 5654 5646 5635 5619 5607 5593 5586
5842 5844 5844 5841 5837 5834 5834 5832 5833 5831 5830 5828 5826 5827 5825 5822 5815 5811 5803 5794 5783 5773 5767 5761 5751 5743 5730 5719 5704 5692 5685 5686 5680 5675 5667 5659 5650 5639 5631 5619 5604 5590 5576
5850 5849 5846 5845 5842 5841 5838 5836 5835 5833 5832 5829 5828 5829 5827 5826 5820 5813 5804 5799 5790 5778 5768 5758 5749 5738 5732 5723 5712 5697 5688 5682 5674 5666 5660 5653 5645 5635 5626 5614 5602 5585 5570
5849 5848 5846 5845 5844 5842 5839 5838 5837 5835 5833 5830 5829 5829 5830 5827 5822 5813 5805 5800 5794 5782 5770 5760 5752 5740 5732 5720 5707 5698 5690 5680 5669 5660 5653 5647 5638 5629 5620 5610 5599 5584 5567
5848 5849 5849 5846 5844 5843 5840 5838 5835 5835 5835 5834 5832 5832 5832 5826 5819 5810 5802 5795 5791 5784 5776 5767 5755 5745 5735 5725 5709 5703 5691 5677 5667 5657 5648 5640 5633 5625 5618 5608 5596 5580 5564
5842 5842 5843 5843 5842 5842 5843 5842 5840 5839 5839 5837 5836 5834 5832 5823 5818 5804 5796 5791 5786 5780 5771 5761 5754 5742 5733 5720 5716 5704 5691 5678 5665 5656 5647 5638 5630 5621 5609 5598 5585 5569 5552
5843 5842 5843 5843 5840 5840 5842 5843 5845 5851 5849 5844 5844 5841 5835 5824 5823 5817 5806 5798 5793 5782 5761 5748 5739 5732 5719 5709 5697 5693 5687 5677 5666 5655 5645 5637 5626 5615 5607 5594 5577 5558 5544
5841 5841 5845 5845 5843 5842 5843 5844 5843 5847 5848 5847 5846 5845 5844 5838 5824 5809 5804 5797 5789 5781 5770 5750 5733 5721 5721 5708 5697 5691 5681 5676 5666 5654 5642 5631 5622 5614 5602 5586 5570 5556 5542
5847 5847 5846 5844 5846 5845 5844 5844 5843 5839 5838 5840 5837 5838 5838 5827 5816 5810 5794 5791 5780 5770 5770 5768 5751 5728 5721 5702 5686 5680 5676 5667 5661 5652 5639 5629 5620 5609 5597 5582 5567 5554 5540
5846 5847 5847 5849 5849 5848 5847 5847 5846 5844 5841 5839 5831 5828 5827 5826 5817 5803 5789 5778 5767 5762 5758 5748 5744 5732 5721 5719 5707 5681 5675 5660 5651 5644 5633 5626 5616 5604 5592 5579 5566 5553 5535
5832 5839 5841 5844 5845 5846 5846 5845 5845 5843 5840 5836 5826 5819 5811 5805 5798 5791 5786 5785 5775 5767 5761 5750 5737 5727 5718 5709 5694 5683 5678 5666 5653 5641 5632 5623 5613 5601 5590 5577 5564 5553 5537
5823 5828 5832 5834 5835 5835 5835 5835 5835 5835 5832 5826 5824 5820 5804 5798 5789 5782 5779 5778 5769 5763 5756 5745 5735 5724 5711 5706 5696 5683 5670 5662 5653 5641 5631 5619 5609 5599 5587 5575 5563 5547 5532
5803 5816 5821 5823 5823 5827 5828 5826 5827 5825 5822 5817 5817 5815 5808 5805 5796 5787 5777 5772 5767 5760 5751 5743 5735 5721 5705 5691 5689 5686 5671 5658 5648 5638 5629 5619 5607 5596 5586 5574 5560 5547 5532
5790 5800 5807 5811 5815 5816 5819 5819 5816 5815 5813 5808 5806 5797 5788 5791 5788 5781 5771 5766 5760 5755 5747 5741 5734 5720 5706 5699 5680 5674 5672 5655 5649 5638 5629 5620 5607 5596 5583 5569 5558 5544 5529
5772 5776 5784 5792 5799 5802 5806 5807 5805 5806 5803 5799 5793 5784 5779 5781 5780 5775 5766 5761 5752 5745 5740 5736 5728 5715 5705 5691 5681 5668 5660 5647 5642 5636 5627 5619 5605 5591 5580 5570 5557 5543 5531
5744 5751 5760 5769 5778 5787 5792 5797 5797 5796 5794 5789 5784 5778 5773 5772 5771 5767 5760 5755 5746 5739 5733 5726 5722 5711 5697 5687 5675 5663 5649 5646 5640 5631 5626 5617 5601 5588 5578 5567 5557 5544 5531
5722 5730 5737 5745 5757 5767 5777 5781 5783 5785 5783 5780 5775 5770 5765 5762 5760 5757 5751 5745 5739 5730 5723 5716 5709 5703 5693 5684 5669 5653 5641 5640 5636 5630 5623 5615 5598 5586 5577 5565 5553 5543 5530
5693 5701 5708 5716 5729 5741 5754 5764 5769 5771 5769 5766 5761 5756 5754 5752 5749 5744 5739 5736 5732 5726 5719 5711 5705 5701 5690 5678 5677 5666 5650 5638 5631 5624 5615 5606 5592 5579 5569 5559 5549 5538 5528